NOZ933 EKCH-ENGM

Flight info

Callsign NOZ933
Flight time 0h 56m
Altitude 34000
Route VEDAR DCT SABAK DCT LUNIP
Aircraft B738/M-SDE2E3FGHIRWXY/LB1

Departure

Time 2026-05-05 14:37
Airport Copenhagen Kastrup Airport (EKCH)

Arrival

Time 2026-05-05 15:34
Airport Oslo-Gardermoen International Airport (ENGM)
Time Latitude Longitude Altitude Speed Heading
2026-05-05 14:11 55.62760 12.64314 16 ft 0 kts 296°
2026-05-05 14:28 55.62755 12.64333 16 ft 4 kts 284°
2026-05-05 14:28 55.62756 12.64376 16 ft 4 kts 236°
2026-05-05 14:28 55.62769 12.64398 18 ft 0 kts 204°
2026-05-05 14:31 55.62768 12.64398 18 ft 1 kts 204°
2026-05-05 14:31 55.62743 12.64378 18 ft 8 kts 203°
2026-05-05 14:32 55.62677 12.64326 17 ft 12 kts 201°
2026-05-05 14:32 55.62600 12.64258 16 ft 12 kts 210°
2026-05-05 14:32 55.62525 12.64212 16 ft 12 kts 152°
2026-05-05 14:32 55.62469 12.64338 16 ft 15 kts 128°
2026-05-05 14:33 55.62380 12.64445 16 ft 17 kts 194°
2026-05-05 14:33 55.62265 12.64393 15 ft 17 kts 195°
2026-05-05 14:33 55.62153 12.64305 15 ft 18 kts 204°
2026-05-05 14:33 55.62042 12.64216 17 ft 18 kts 205°
2026-05-05 14:34 55.61936 12.64222 18 ft 19 kts 96°
2026-05-05 14:34 55.61947 12.64441 16 ft 18 kts 106°
2026-05-05 14:34 55.61842 12.64527 17 ft 18 kts 169°
2026-05-05 14:34 55.61708 12.64570 16 ft 22 kts 173°
2026-05-05 14:35 55.61570 12.64448 16 ft 24 kts 213°
2026-05-05 14:35 55.61400 12.64251 16 ft 34 kts 213°
2026-05-05 14:35 55.61180 12.64000 16 ft 39 kts 213°
2026-05-05 14:35 55.60956 12.63741 18 ft 37 kts 212°
2026-05-05 14:36 55.60814 12.63589 16 ft 15 kts 190°
2026-05-05 14:36 55.60736 12.63688 16 ft 15 kts 132°
2026-05-05 14:36 55.60688 12.63787 17 ft 17 kts 126°
2026-05-05 14:36 55.60732 12.63958 18 ft 18 kts 41°
2026-05-05 14:37 55.61077 12.64492 15 ft 93 kts 41°
2026-05-05 14:37 55.61466 12.65094 18 ft 131 kts 41°
2026-05-05 14:37 55.62262 12.66344 209 ft 165 kts 39°
2026-05-05 14:37 55.63075 12.67694 1122 ft 155 kts 40°
2026-05-05 14:38 55.63884 12.68954 1863 ft 159 kts 38°
2026-05-05 14:38 55.64796 12.70332 2213 ft 187 kts 37°
2026-05-05 14:38 55.66005 12.71362 2421 ft 206 kts
2026-05-05 14:38 55.67404 12.70711 2735 ft 221 kts 327°
2026-05-05 14:39 55.68740 12.69363 3236 ft 227 kts 348°
2026-05-05 14:39 55.70319 12.69402 3813 ft 231 kts
2026-05-05 14:39 55.71987 12.69501 4202 ft 248 kts 359°
2026-05-05 14:39 55.73719 12.69441 5009 ft 249 kts 357°
2026-05-05 14:40 55.75463 12.69311 5754 ft 255 kts 355°
2026-05-05 14:40 55.77259 12.69143 6463 ft 262 kts 355°
2026-05-05 14:40 55.79097 12.68959 7183 ft 265 kts 354°
2026-05-05 14:40 55.80942 12.68596 7840 ft 269 kts 340°
2026-05-05 14:41 55.82520 12.66894 8526 ft 267 kts 311°
2026-05-05 14:41 55.83534 12.64165 9316 ft 265 kts 292°
2026-05-05 14:41 55.84226 12.61137 10110 ft 265 kts 289°
2026-05-05 14:41 55.84905 12.57985 10418 ft 284 kts 288°
2026-05-05 14:42 55.85639 12.54567 10614 ft 306 kts 289°
2026-05-05 14:42 55.86417 12.50991 11091 ft 315 kts 289°
2026-05-05 14:42 55.87213 12.47385 11789 ft 318 kts 289°
2026-05-05 14:42 55.88022 12.43726 12575 ft 319 kts 289°
2026-05-05 14:43 55.88811 12.40160 13310 ft 323 kts 289°
2026-05-05 14:43 55.89820 12.36548 13997 ft 332 kts 303°
2026-05-05 14:43 55.91518 12.33677 14696 ft 343 kts 321°
2026-05-05 14:43 55.93710 12.31844 15403 ft 356 kts 338°
2026-05-05 14:44 55.96119 12.30682 16103 ft 362 kts 340°
2026-05-05 14:44 55.98584 12.29606 16793 ft 366 kts 340°
2026-05-05 14:44 56.01058 12.28529 17458 ft 370 kts 340°
2026-05-05 14:44 56.03566 12.27407 18115 ft 374 kts 339°
2026-05-05 14:45 56.06097 12.26244 18699 ft 377 kts 339°
2026-05-05 14:45 56.08647 12.25057 19291 ft 380 kts 339°
2026-05-05 14:45 56.11219 12.23885 19891 ft 384 kts 341°
2026-05-05 14:45 56.13858 12.23003 20457 ft 390 kts 345°
2026-05-05 14:46 56.16559 12.22286 21021 ft 394 kts 346°
2026-05-05 14:46 56.19288 12.21610 21578 ft 397 kts 346°
2026-05-05 14:46 56.22032 12.20924 22127 ft 400 kts 345°
2026-05-05 14:46 56.24795 12.20211 22703 ft 403 kts 345°
2026-05-05 14:47 56.27579 12.19471 23231 ft 406 kts 344°
2026-05-05 14:47 56.30386 12.18709 23711 ft 409 kts 344°
2026-05-05 14:47 56.33208 12.17935 24139 ft 412 kts 344°
2026-05-05 14:47 56.36051 12.17151 24589 ft 414 kts 344°
2026-05-05 14:48 56.38904 12.16363 25027 ft 416 kts 344°
2026-05-05 14:48 56.41776 12.15569 25463 ft 419 kts 344°
2026-05-05 14:48 56.44659 12.14770 25882 ft 421 kts 344°
2026-05-05 14:48 56.47567 12.13964 26277 ft 423 kts 344°
2026-05-05 14:49 56.50484 12.13154 26672 ft 426 kts 344°
2026-05-05 14:49 56.53424 12.12336 27101 ft 429 kts 344°
2026-05-05 14:49 56.56332 12.11523 27501 ft 430 kts 344°
2026-05-05 14:49 56.59303 12.10690 27874 ft 433 kts 344°
2026-05-05 14:50 56.62292 12.09850 28223 ft 435 kts 344°
2026-05-05 14:50 56.65291 12.09005 28571 ft 438 kts 344°
2026-05-05 14:50 56.68312 12.08154 28918 ft 440 kts 344°
2026-05-05 14:50 56.71337 12.07301 29325 ft 441 kts 344°
2026-05-05 14:51 56.74361 12.06450 29861 ft 439 kts 344°
2026-05-05 14:51 56.77371 12.05603 30336 ft 436 kts 344°
2026-05-05 14:51 56.80367 12.04757 30758 ft 436 kts 344°
2026-05-05 14:51 56.83359 12.03909 31142 ft 435 kts 343°
2026-05-05 14:52 56.86344 12.03061 31544 ft 433 kts 343°
2026-05-05 14:52 56.89321 12.02214 31921 ft 433 kts 343°
2026-05-05 14:52 56.92297 12.01365 32282 ft 432 kts 343°
2026-05-05 14:52 56.95262 12.00517 32644 ft 431 kts 343°
2026-05-05 14:53 56.98113 11.99701 33011 ft 430 kts 343°
2026-05-05 14:53 57.01058 11.98857 33366 ft 430 kts 343°
2026-05-05 14:53 57.04013 11.98009 33704 ft 429 kts 343°
2026-05-05 14:53 57.06965 11.97160 33993 ft 430 kts 343°
2026-05-05 14:54 57.12926 11.95436 33979 ft 433 kts 343°
2026-05-05 14:54 57.18822 11.93742 33957 ft 425 kts 343°
2026-05-05 14:55 57.24664 11.92048 33977 ft 425 kts 342°
2026-05-05 14:55 57.30506 11.90343 33976 ft 425 kts 342°
2026-05-05 14:56 57.36359 11.88633 33966 ft 425 kts 342°
2026-05-05 14:56 57.42209 11.86918 33971 ft 427 kts 342°
2026-05-05 14:57 57.48032 11.85207 33964 ft 427 kts 342°
2026-05-05 14:57 57.53851 11.83496 33752 ft 422 kts 342°
2026-05-05 14:58 57.56759 11.82645 33455 ft 414 kts 342°
2026-05-05 14:58 57.59375 11.81879 33191 ft 408 kts 342°
2026-05-05 14:58 57.62149 11.81062 32915 ft 401 kts 342°
2026-05-05 14:58 57.64882 11.80254 32638 ft 394 kts 341°
2026-05-05 14:59 57.67571 11.79455 32424 ft 388 kts 341°
2026-05-05 14:59 57.70220 11.78667 32156 ft 383 kts 341°
2026-05-05 14:59 57.72830 11.77888 31890 ft 377 kts 340°
2026-05-05 14:59 57.75404 11.77118 31624 ft 372 kts 340°
2026-05-05 15:00 57.77941 11.76358 31358 ft 367 kts 340°
2026-05-05 15:00 57.79605 11.75859 31189 ft 364 kts 340°
2026-05-05 15:00 57.82894 11.74872 30853 ft 357 kts 340°
2026-05-05 15:00 57.85333 11.74137 30606 ft 354 kts 340°
2026-05-05 15:01 57.87766 11.73401 30361 ft 353 kts 340°
2026-05-05 15:01 57.90195 11.72664 30126 ft 355 kts 340°
2026-05-05 15:01 57.92646 11.71914 29866 ft 360 kts 340°
2026-05-05 15:01 57.95134 11.71155 29646 ft 363 kts 339°
2026-05-05 15:02 57.97626 11.70402 29366 ft 362 kts 339°
2026-05-05 15:02 58.00102 11.69656 29080 ft 361 kts 339°
2026-05-05 15:02 58.02580 11.68908 28798 ft 361 kts 339°
2026-05-05 15:02 58.05057 11.68157 28526 ft 360 kts 339°
2026-05-05 15:03 58.07532 11.67405 28247 ft 360 kts 339°
2026-05-05 15:03 58.10008 11.66650 27974 ft 360 kts 339°
2026-05-05 15:03 58.12483 11.65895 27705 ft 360 kts 339°
2026-05-05 15:03 58.14957 11.65140 27444 ft 361 kts 339°
2026-05-05 15:04 58.17440 11.64380 27178 ft 361 kts 340°
2026-05-05 15:04 58.19921 11.63608 26915 ft 362 kts 339°
2026-05-05 15:04 58.22413 11.62818 26674 ft 363 kts 339°
2026-05-05 15:04 58.24898 11.62025 26418 ft 364 kts 339°
2026-05-05 15:05 58.29907 11.60422 25903 ft 366 kts 339°
2026-05-05 15:05 58.32329 11.59647 25661 ft 367 kts 340°
2026-05-05 15:05 58.34853 11.58839 25408 ft 368 kts 340°
2026-05-05 15:06 58.37385 11.58028 25172 ft 369 kts 340°
2026-05-05 15:06 58.39918 11.57217 24997 ft 369 kts 340°
2026-05-05 15:06 58.42448 11.56407 24950 ft 369 kts 340°
2026-05-05 15:06 58.44980 11.55592 24949 ft 370 kts 340°
2026-05-05 15:07 58.47515 11.54780 24707 ft 367 kts 340°
2026-05-05 15:07 58.50011 11.53983 24472 ft 361 kts 340°
2026-05-05 15:07 58.52481 11.53189 24300 ft 364 kts 339°
2026-05-05 15:07 58.55018 11.52351 24087 ft 376 kts 339°
2026-05-05 15:08 58.57621 11.51493 23853 ft 380 kts 340°
2026-05-05 15:08 58.60221 11.50652 23617 ft 378 kts 340°
2026-05-05 15:08 58.62811 11.49819 23363 ft 377 kts 340°
2026-05-05 15:08 58.65395 11.48985 23078 ft 376 kts 340°
2026-05-05 15:09 58.67967 11.48152 22801 ft 376 kts 340°
2026-05-05 15:09 58.70552 11.47311 22527 ft 376 kts 340°
2026-05-05 15:09 58.73122 11.46471 22253 ft 376 kts 340°
2026-05-05 15:09 58.75698 11.45628 21981 ft 376 kts 340°
2026-05-05 15:10 58.78281 11.44780 21721 ft 377 kts 340°
2026-05-05 15:10 58.80866 11.43930 21457 ft 377 kts 340°
2026-05-05 15:10 58.83453 11.43081 21270 ft 376 kts 339°
2026-05-05 15:10 58.85978 11.42258 21009 ft 369 kts 339°
2026-05-05 15:11 58.88510 11.41435 20736 ft 360 kts 339°
2026-05-05 15:11 58.90925 11.40645 20476 ft 353 kts 339°
2026-05-05 15:11 58.93323 11.39856 20214 ft 346 kts 338°
2026-05-05 15:11 58.95678 11.39077 19956 ft 340 kts 338°
2026-05-05 15:12 58.97982 11.38314 19761 ft 332 kts 338°
2026-05-05 15:12 59.00220 11.37574 19438 ft 322 kts 338°
2026-05-05 15:12 59.02373 11.36868 19404 ft 304 kts 337°
2026-05-05 15:12 59.04440 11.36179 19402 ft 303 kts 336°
2026-05-05 15:13 59.06559 11.35443 19432 ft 314 kts 337°
2026-05-05 15:13 59.08732 11.34698 19423 ft 318 kts 337°
2026-05-05 15:13 59.10915 11.33969 19483 ft 318 kts 337°
2026-05-05 15:13 59.13076 11.33254 19487 ft 314 kts 336°
2026-05-05 15:14 59.15226 11.32537 19485 ft 312 kts 336°
2026-05-05 15:14 59.17363 11.31821 19483 ft 311 kts 336°
2026-05-05 15:14 59.19503 11.31168 19483 ft 314 kts 339°
2026-05-05 15:14 59.21683 11.30694 19485 ft 316 kts 340°
2026-05-05 15:15 59.23865 11.30276 19477 ft 316 kts 340°
2026-05-05 15:15 59.26058 11.29859 19475 ft 316 kts 340°
2026-05-05 15:15 59.28252 11.29432 19476 ft 317 kts 340°
2026-05-05 15:15 59.30440 11.28996 19482 ft 318 kts 340°
2026-05-05 15:16 59.32644 11.28548 19486 ft 319 kts 340°
2026-05-05 15:16 59.34860 11.28094 19479 ft 320 kts 340°
2026-05-05 15:16 59.37069 11.27642 19472 ft 319 kts 340°
2026-05-05 15:16 59.39268 11.27193 19429 ft 315 kts 340°
2026-05-05 15:17 59.41422 11.26756 19215 ft 307 kts 340°
2026-05-05 15:17 59.43542 11.26320 18720 ft 305 kts 340°
2026-05-05 15:17 59.45637 11.25875 18111 ft 306 kts 340°
2026-05-05 15:17 59.47757 11.25374 17349 ft 307 kts 340°
2026-05-05 15:18 59.49882 11.24855 16638 ft 308 kts 341°
2026-05-05 15:18 59.52009 11.24340 15920 ft 309 kts 343°
2026-05-05 15:18 59.54147 11.23828 15215 ft 309 kts 344°
2026-05-05 15:18 59.56279 11.23319 14530 ft 308 kts 345°
2026-05-05 15:19 59.58401 11.22813 13896 ft 306 kts 347°
2026-05-05 15:19 59.60501 11.22312 13220 ft 303 kts 347°
2026-05-05 15:19 59.62611 11.22163 12495 ft 309 kts
2026-05-05 15:19 59.64663 11.23541 11825 ft 317 kts 24°
2026-05-05 15:20 59.66402 11.26230 11153 ft 324 kts 44°
2026-05-05 15:20 59.67577 11.29988 10774 ft 320 kts 66°
2026-05-05 15:20 59.68062 11.34125 10845 ft 302 kts 86°
2026-05-05 15:20 59.67988 11.38190 10883 ft 289 kts 90°
2026-05-05 15:21 59.68155 11.41879 10858 ft 275 kts 72°
2026-05-05 15:21 59.68837 11.45310 10874 ft 265 kts 57°
2026-05-05 15:21 59.69817 11.48379 10882 ft 263 kts 50°
2026-05-05 15:21 59.70928 11.51271 10884 ft 264 kts 47°
2026-05-05 15:22 59.72088 11.54100 10876 ft 265 kts 46°
2026-05-05 15:22 59.73281 11.56868 10870 ft 263 kts 38°
2026-05-05 15:22 59.74757 11.58868 10885 ft 255 kts 24°
2026-05-05 15:22 59.76307 11.60600 10869 ft 256 kts 25°
2026-05-05 15:23 59.77840 11.62369 10846 ft 256 kts 25°
2026-05-05 15:23 59.79398 11.64011 10854 ft 250 kts 12°
2026-05-05 15:23 59.80506 11.64309 10863 ft 239 kts 350°
2026-05-05 15:23 59.82472 11.62741 10657 ft 233 kts 317°
2026-05-05 15:24 59.83519 11.60286 10374 ft 235 kts 297°
2026-05-05 15:24 59.84175 11.57309 10103 ft 236 kts 290°
2026-05-05 15:24 59.84739 11.54252 9821 ft 236 kts 289°
2026-05-05 15:24 59.85290 11.51185 9519 ft 235 kts 290°
2026-05-05 15:25 59.85840 11.48130 9222 ft 235 kts 290°
2026-05-05 15:25 59.86207 11.46102 9032 ft 235 kts 290°
2026-05-05 15:25 59.86761 11.43061 8775 ft 233 kts 290°
2026-05-05 15:25 59.87317 11.40022 8483 ft 233 kts 290°
2026-05-05 15:26 59.87872 11.36996 8163 ft 234 kts 290°
2026-05-05 15:26 59.88430 11.33961 7863 ft 234 kts 290°
2026-05-05 15:26 59.88990 11.30913 7559 ft 234 kts 290°
2026-05-05 15:26 59.89549 11.27869 7264 ft 235 kts 290°
2026-05-05 15:27 59.90105 11.24847 7082 ft 230 kts 290°
2026-05-05 15:27 59.90652 11.21863 6822 ft 229 kts 290°
2026-05-05 15:27 59.91195 11.18897 6546 ft 228 kts 290°
2026-05-05 15:27 59.91739 11.15919 6282 ft 228 kts 290°
2026-05-05 15:28 59.92282 11.12945 5974 ft 229 kts 291°
2026-05-05 15:28 59.93093 11.10287 5688 ft 228 kts 313°
2026-05-05 15:28 59.94203 11.08124 5434 ft 221 kts 313°
2026-05-05 15:28 59.95262 11.06007 5190 ft 216 kts 313°
2026-05-05 15:29 59.96305 11.03913 4940 ft 209 kts 313°
2026-05-05 15:29 59.97301 11.01912 4836 ft 194 kts 313°
2026-05-05 15:29 59.98372 11.00465 4694 ft 184 kts 342°
2026-05-05 15:29 59.99582 11.00494 4594 ft 178 kts
2026-05-05 15:30 60.00790 11.01140 4123 ft 188 kts 11°
2026-05-05 15:30 60.02030 11.01839 3806 ft 184 kts 12°
2026-05-05 15:30 60.03246 11.02534 3577 ft 178 kts 11°
2026-05-05 15:30 60.04403 11.03203 3503 ft 171 kts 11°
2026-05-05 15:31 60.05520 11.03845 3501 ft 163 kts 10°
2026-05-05 15:31 60.06599 11.04466 3519 ft 160 kts 10°
2026-05-05 15:31 60.07673 11.05081 3563 ft 157 kts 11°
2026-05-05 15:31 60.08717 11.05672 3312 ft 161 kts 10°
2026-05-05 15:32 60.09796 11.06334 2819 ft 163 kts 12°
2026-05-05 15:32 60.10887 11.07003 2362 ft 162 kts 11°
2026-05-05 15:32 60.11943 11.07627 1994 ft 155 kts
2026-05-05 15:32 60.12957 11.08211 1672 ft 147 kts
2026-05-05 15:33 60.13922 11.08714 1460 ft 141 kts 10°
2026-05-05 15:33 60.14887 11.09229 1253 ft 145 kts
2026-05-05 15:33 60.15858 11.09805 1220 ft 148 kts
2026-05-05 15:33 60.16814 11.10343 961 ft 137 kts
2026-05-05 15:34 60.17703 11.10851 677 ft 127 kts 11°
2026-05-05 15:34 60.18466 11.11294 682 ft 103 kts 15°
2026-05-05 15:34 60.18830 11.11484 681 ft 23 kts 354°
2026-05-05 15:34 60.18903 11.11297 682 ft 12 kts 285°
2026-05-05 15:35 60.18930 11.11194 681 ft 8 kts 323°
2026-05-05 15:35 60.18994 11.11203 679 ft 12 kts 16°
2026-05-05 15:35 60.19087 11.11257 682 ft 17 kts 15°
2026-05-05 15:35 60.19216 11.11332 682 ft 22 kts 16°
2026-05-05 15:36 60.19345 11.11406 679 ft 13 kts 15°
2026-05-05 15:36 60.19406 11.11307 682 ft 13 kts 285°
2026-05-05 15:36 60.19432 11.11138 682 ft 12 kts 287°
2026-05-05 15:36 60.19456 11.10972 682 ft 12 kts 286°
2026-05-05 15:37 60.19479 11.10811 679 ft 12 kts 285°
2026-05-05 15:37 60.19502 11.10653 682 ft 12 kts 286°
2026-05-05 15:37 60.19524 11.10497 680 ft 11 kts 286°
2026-05-05 15:37 60.19571 11.10378 684 ft 11 kts 315°
2026-05-05 15:38 60.19593 11.10241 684 ft 7 kts 285°
2026-05-05 15:38 60.19602 11.10182 682 ft 1 kts 286°
2026-05-05 15:38 60.19603 11.10173 683 ft 0 kts 287°